Погода в Чхунджу

Южная Корея     36°58′17″N   127°55′32″E
темп.,
°C
ветер,
м/с
пор.,
м/с
влажн.,
%
обл.,
%
осадки,
мм/ч
давл.,
гПа
погр.,
м
11 апреля, вс
вс1100:00+8юв01640 0.0 103110
03:00+7в11690 0.0 103110
06:00+6в11725 0.0 103210
09:00+12всв115123 0.0 1032356
12:00+19з013388 0.0 10301295
15:00+20юз223039 0.0 10272174
18:00+17ю254278 0.0 1027161
21:00+12вюв1152100 0.0 102812
12 апреля, пн
пн1200:00+11в1157100 0.0 102813
03:00+10вюв1162100 0.0 102612
06:00+10вюв1159100 0.0 102519
09:00+14вюв1241100 0.0 1024457
12:00+16ююз2331100 0.0 10221091
15:00+12в2365100 0.3 1019302
18:00+11в2680100 0.4 1016408
21:00+10в2392100 1.6 1014195
13 апреля, вт
вт1300:00+11юв1293100 0.5 1012100
03:00+11ю1196100 1.5 101068
06:00+11юз1598100 0.6 1010418
09:00+11зюз3797100 1.2 1012676
12:00+13з4871100 0.1 10131233
15:00+15з7946100 0.1 10111743
18:00+11зюз6950100 0.0 1013801
21:00+6юз376239 0.0 1017384
14 апреля, ср
ср1400:00+4ююз22731 0.0 101867
03:00+3ююз11755 0.0 101822
06:00+2ю01780 0.0 101910
09:00+8сз12500 0.0 1021632
12:00+13зсз48300 0.0 10192019
15:00+15сз57210 0.0 10182437
18:00+13з47320 0.0 1019488
21:00+6юз21520 0.0 102119
15 апреля, чт
чт1500:00+5ююз11570 0.0 102210
03:00+4юв11595 0.0 102110
06:00+3ююв006081 0.0 102210
09:00+9в1040100 0.0 1021352
12:00+14з1127100 0.0 1019947
15:00+16з242529 0.0 10171667
18:00+14з253485 0.0 1017232
21:00+8ююз115175 0.0 101916